Other Public Products
Issued by NWS Grand Forks, ND

Home | Current Version | Previous Version | Graphics & Text | Print | Product List | Glossary On
Versions: 1 2 3 4 5 6 7 8 9 10 11 12 13 14 15 16 17 18 19 20 21 22 23 24 25 26 27 28 29 30 31 32 33 34 35 36 37 38 39 40 41 42 43 44 45 46 47 48 49 50
000
FPUS83 KFGF 250831
OPUFGF
PRAIRIE TO PINES WEATHER ROUNDUP
NATIONAL WEATHER SERVICE EASTERN NORTH DAKOTA/GRAND FORKS ND
200 AM CST SUN JAN 25 2015

 **SATELLITE DATA USED TO AUGMENT SKY COVER AT AUTOMATED STATIONS**
 *****  WEATHER ACROSS EASTERN NORTH DAKOTA  *****

CITY           SKY/WX    TMP DP  RH WIND       PRES   REMARKS
GRAND FORKS    CLOUDY    19  13  77 N7        29.93R WCI  10
GRAND FORKS AF CLOUDY    16  13  87 N6        29.93R WCI   8
GRAND CITY NWS   N/A     18 N/A N/A N7          N/A  WCI   8
BUXTON         NOT AVBL
DEVILS LAKE    CLOUDY    16  12  86 NE7       29.90R WCI   6
FARGO          CLOUDY    24  18  77 N14       29.87R WCI  12
WAHPETON ARPT  CLOUDY    28  27  93 N15       29.86R WCI  17
$$

 *****  WEATHER ACROSS CENTRAL AND WESTERN NORTH DAKOTA  *****

CITY           SKY/WX    TMP DP  RH WIND       PRES   REMARKS
JAMESTOWN      CLOUDY    22  19  89 N7        29.87R WCI  13
BISMARCK       CLOUDY    37  32  82 NW13      29.88R
MINOT          CLOUDY    27  25  92 CALM      29.87R
MINOT AFB      CLOUDY    27  27 100 N3        29.88R
GARRISON         N/A     35  33  92 NW16      29.86R
WILLISTON      CLOUDY    36  31  82 NW13      29.97S
DICKINSON      CLOUDY    35  29  78 NW17      29.91R WCI  25
HETTINGER      CLEAR     33  28  81 W17       29.95R WCI  22
$$

 *****  OTHER OBSERVATIONS NORTHEAST NORTH DAKOTA  *****

CITY           SKY/WX    TMP DP  RH WIND       PRES   REMARKS
WALHALLA         N/A     16  16 100 N9        29.98R WCI   4
LANGDON        CLOUDY    10   9  92 NE8       29.91R WCI  -1
CAVALIER       CLOUDY    16  12  86 N9        29.97R WCI   4
GRAFTON        NOT AVBL
CANDO          CLOUDY    16  12  86 NE7       29.93R WCI   6
FORT TOTTEN    NOT AVBL
ROLLA          CLOUDY    14  14 100 NE8       29.92R WCI   3
RUGBY          CLOUDY    18  16  93 E12       29.90R WCI   5
 ***** THE ABOVE OBSERVATIONS ARE NON NWS ARE NOT QUALITY
        CONTROLLED AND MAY MIS-REPORT RAIN FOR SNOW...
$$

 *****  OTHER OBSERVATIONS SOUTHEAST NORTH DAKOTA *****

CITY           SKY/WX    TMP DP  RH WIND       PRES   REMARKS
COOPERSTOWN    NOT AVBL
VALLEY CITY    NOT AVBL
OAKES          LGT SNOW  25  25 100 N13       29.87R WCI  13
GWINNER        CLOUDY    27  28 100 N12       29.87R WCI  16
SHEYENNE NWR     N/A     24  21  89 N8        29.95  WCI  15
BUFFALO        NOT AVBL
WYNDMERE       NOT AVBL
 ***** THE ABOVE OBSERVATIONS ARE NON NWS ARE NOT QUALITY
       CONTROLLED AND MAY MIS-REPORT RAIN FOR SNOW...
$$

  *****  WEATHER ACROSS NORTHERN MINNESOTA  *****

CITY           SKY/WX    TMP DP  RH WIND       PRES   REMARKS
FLAG ISLAND    PTCLDY     9   0  66 E3        29.98R
WARROAD        PTCLDY    10   3  72 NE12      29.97R WCI  -4
ROSEAU         CLEAR     12   5  73 E12       29.96R WCI  -2
HALLOCK        CLOUDY    18   9  68 E9        29.96R WCI   6
THF RVR FALLS  CLOUDY    16   9  73 NE9       29.92R WCI   4
HALSTAD          N/A     21  14  73 N12         N/A  WCI  10
FOSSTON        CLOUDY    16  10  79 NE8       29.89R WCI   5
BAUDETTE       CLOUDY    10   0  63 E10       29.92R WCI  -4
WASKISH        CLOUDY    12   7  79 NE7       29.92R WCI   2
CROOKSTON      CLOUDY    19  12  73 NE8       29.93R WCI   9
$$
  *****  WEATHER ACROSS CENTRAL AND WEST MINNESOTA  *****

CITY           SKY/WX    TMP DP  RH WIND       PRES   REMARKS
BEMIDJI        CLOUDY    16  10  75 NE6       29.87R WCI   8
PARK RAPIDS    CLOUDY    24  14  65 NE8       29.83R WCI  15
WADENA         CLOUDY    27  21  80 N8        29.81R WCI  18
DETROIT LAKES  CLOUDY    30  27  86 NE5       29.84R
MOORHEAD       FAIR      25  23  93 N13       29.89R WCI  13
FERGUS FALLS   CLOUDY    30  28  93 N6        29.86R WCI  24
ELBOW LAKE     CLOUDY    30  29  96 N8        29.81R WCI  22
MORRIS MN      MOCLDY    30  30 100 N10       29.79R WCI  21
STAPLES        CLOUDY    28  25  86 CALM      29.82R
WHEATON        MIX PCPN  28  27  93 N16       29.86R WCI  17
$$
  *****  WEATHER ELSEWHERE ACROSS MINNESOTA  *****

CITY           SKY/WX    TMP DP  RH WIND       PRES   REMARKS
DULUTH         FLURRIES  19  11  70 E15G24    29.84R WCI   5
INTRNTL FALLS  CLOUDY     5  -3  69 E9        29.94R WCI  -9
ELY            CLEAR      1  -2  85 NE3       29.92R
CLOQUET        FLURRIES  19  12  73 E14G23    29.86R WCI   6
BRAINERD       CLOUDY    25  20  81 NE10      29.82R WCI  15
HIBBING        CLOUDY    20  11  68 NE6       29.86R WCI  12
ALEXANDRIA     CLOUDY    32  29  88 N9        29.78R WCI  24
SAINT CLOUD    CLOUDY    29  24  82 NE10      29.77R WCI  20
MINNEAPOLIS    LGT SNOW  32  28  85 NE14      29.73R FOG     WCI  22
$$

  *****  WEATHER ACROSS SOUTH DAKOTA  *****

CITY           SKY/WX    TMP DP  RH WIND       PRES   REMARKS
SIOUX FALLS    LGT SNOW  33  31  92 N18       29.74R FOG     WCI  22
BROOKINGS      NOT AVBL
WATERTOWN      CLOUDY    32  30  92 N17       29.77R WCI  21
HURON          CLOUDY    32  30  92 N16       29.83R WCI  21
SISSETON         N/A     30  30 100 N15       29.82R WCI  19
ABERDEEN       LGT SNOW  30  27  88 N13       29.85R FOG     WCI  20
MITCHELL       CLOUDY    33  31  92 N20       29.82R WCI  21
PIERRE         CLOUDY    38  33  82 NW17      29.87R
MOBRIDGE       CLOUDY    39  34  82 NW14      29.84R
RAPID CITY     CLEAR     38  23  55 NW21      29.99R
$$

  *****  SOME WEATHER IN NEARBY STATES *****

CITY           SKY/WX    TMP DP  RH WIND       PRES   REMARKS
GLASGOW MT     CLEAR     31  25  78 NW8       30.04R WCI  23
GREAT FALLS MT CLOUDY    44  36  73 SW17      30.06F
CHEYENNE WY    PTCLDY    36  25  64 NW14G23   30.10F
SCOTTSBLUFF NE PTCLDY    38  27  64 NW21G32   30.06S
OMAHA NE       LGT RAIN  41  38  89 NW18      29.61S
DES MOINES IA  LGT RAIN  41  38  89 CALM      29.55S
DAVENPORT IA   CLOUDY    33  30  88 E6        29.59S
CHICAGO IL     CLOUDY    32  29  88 NE6       29.67R
EAU CLAIRE WI  CLOUDY    30  22  72 NE13G21   29.74R WCI  20
LA CROSSE WI   MIX PCPN  37  30  75 E10       29.70R
$$

  *****  SOME NATIONAL WEATHER *****

CITY           SKY/WX    TMP DP  RH WIND       PRES   REMARKS
LA GUARDIA NY  PTCLDY    36  25  64 W16G24    29.56R
RALEIGH NC     CLEAR     34  25  69 CALM      29.87R
ATLANTA GA     CLEAR     34  27  75 W5        29.97R
NEW ORLEANS LA PTCLDY    41  38  89 W5        30.07F
OKLAHOMA CITY  CLOUDY    50  32  50 W14       29.89S
ALBUQUERQUE NM PTCLDY    36  18  48 NE5       30.27R
SALT LAKE CITY CLOUDY    34  29  82 SE6       30.46F
LOS ANGELES CA CLEAR     64  31  28 CALM      30.04F
BOISE ID       CLEAR     30  29  96 CALM      30.48S
SEATTLE WA     CLOUDY    55  53  93 S6        30.22F
$$

*** WEATHER ACROSS MANITOBA...SASKATCHEWAN AND ONTARIO ***
                ***ONTARIO***

CITY           SKY/WX    TMP DP  RH WIND       PRES   REMARKS
GERALDTON      CLEAR    -13 -17  84 N6        29.98R WCI -27
THUNDER BAY    CLEAR     -6 -11  77 SW3       30.05R
SIOUX LOOKOUT  CLEAR    -15 -20  76 NW2       30.01R
TORONTO        PTCLDY    21  14  73 NW21      29.67R WCI   6
BIG TROUT LK   CLEAR    -22 -27  76 NW5       30.08R WCI -36
PICKLE LAKE    NOT AVBL
DRYDEN         CLEAR     -8 -11  84 NE8       29.99R WCI -23
KENORA         CLOUDY     3  -4  72 E7        29.97R WCI  -9
$$
                *** MANITOBA***

CITY           SKY/WX    TMP DP  RH WIND       PRES   REMARKS
BRANDON        CLOUDY    10   7  85 E13       29.95S WCI  -5
DAUPHIN        CLOUDY     9   5  85 E2        30.02R
ISLAND LAKE    CRYSTALS -20 -26  76 E3        30.09F
PILOT MOUND      N/A     12   9  85 NE7         N/A  WCI   2
THE PAS        CRYSTALS   3  -2  78 S6        30.00R WCI  -8
THOMPSON       FLURRIES  -6 -13  71 VRB2      30.03F
WINNIPEG       MOCLDY    14   3  62 E7        30.00  WCI   4
LYNN LAKE      FLURRIES  -2  -6  84 S6        29.88F WCI -14
CHURCHILL      CLEAR    -27 -33  75 W6        30.12S WCI -44
GILLAM         CLEAR    -24 -31  69 SW3       30.12S
$$
                ***SASKATCHEWAN***

CITY           SKY/WX    TMP DP  RH WIND       PRES   REMARKS
ESTEVAN        CLOUDY    34  30  86 NW21G26   29.91R WCI  22
KINDERSLEY     MOCLDY    23  21  93 SW6       29.95F WCI  16
LLOYDMINSTER   CLOUDY    32  27  80 SW9       29.86F WCI  24
PRINCE ALBERT  PTCLDY    18  16  93 S2        29.93S
REGINA         MOCLDY    21  18  86 N9G17     29.97R WCI  11



USA.gov is the U.S. government's official web portal to all federal, state and local government web resources and services.